Weather History for KOCF - December, 2012

Change the Weather History Date:

Tuesday, December 11, 2012

  Actual Average (KGNV) Record (KGNV)
Temperature  
Mean Temperature 70 °F 57 °F  
Max Temperature 77 °F 69 °F 84 °F (1971)
Min Temperature 64 °F 45 °F 23 °F (1981)
Degree Days  
Heating Degree Days 0 9  
Month to date heating degree days 88  
Since 1 July heating degree days 249  
Cooling Degree Days 6 1  
Month to date cooling degree days 11  
Year to date cooling degree days 2627  
Growing Degree Days 20 (Base 50)    
Moisture  
Dew Point 62 °F    
Average Humidity 79    
Maximum Humidity 88    
Minimum Humidity 61    
Precipitation  
Precipitation 0.01 in 0.08 in 1.21 in (1967)
Month to date precipitation 0.82  
Year to date precipitation 45.75  
Snow  
Snow 0.00 in 0.00 in 0.00 in ()
Month to date snowfall 0.0  
Since 1 July snowfall 0.0  
Snow Depth -    
Sea Level Pressure  
Sea Level Pressure 29.95 in    
Wind  
Wind Speed 4 mph (SSW)    
Max Wind Speed 9 mph    
Max Gust Speed -    
Visibility 6 miles    
Events Fog    
T = Trace of Precipitation, MM = Missing Value Source: NWS Daily Summary

Daily Weather History Graph

Daily Weather History Graph

Search for Another Location

Airport or City:

Trip Planner

Search our weather history database for the weather conditions in past years. The results will help you decide how hot, cold, wet, or windy it might be!

Date:

Astronomy

Dec. 11, 2012 Rise Set
Actual Time 7:13 AM EST 5:31 PM EST
Civil Twilight 6:47 AM EST 5:57 PM EST
Nautical Twilight 6:17 AM EST 6:27 PM EST
Astronomical Twilight 5:48 AM EST 6:56 PM EST
Moon 5:10 AM EST (12/11) 4:06 PM EST (12/11)
Length of Visible Light 11h 10m
Length of Day
10h 18m
Waning Crescent, 4% of the Moon is Illuminated
Dec 11
Waning Crescent
Dec 13
New
Dec 20
First Quarter
Dec 28
Full
Jan 4
Last Quarter

Hourly Weather History & Observations

Time (EST) Temp. Dew Point Humidity Pressure Visibility Wind Dir Wind Speed Gust Speed Precip Events Conditions
12:15 AM 69.8 °F 62.6 °F 78% 29.89 in 10.0 mi South 5.8 mph - N/A   Overcast
12:35 AM 68.0 °F 62.6 °F 83% 29.89 in 8.0 mi SSW 4.6 mph - N/A   Overcast
12:55 AM 66.2 °F 62.6 °F 88% 29.89 in 5.0 mi SSW 5.8 mph - N/A   Mostly Cloudy
1:15 AM 66.2 °F 62.6 °F 88% 29.88 in 1.8 mi SSW 4.6 mph - N/A   Mostly Cloudy
1:35 AM 64.4 °F 60.8 °F 88% 29.87 in 0.5 mi SSW 4.6 mph - N/A   Overcast
1:55 AM 66.2 °F 62.6 °F 88% 29.88 in 0.5 mi SW 4.6 mph - N/A   Overcast
2:15 AM 66.2 °F 62.6 °F 88% 29.88 in 0.5 mi South 3.5 mph - N/A   Overcast
2:35 AM 64.4 °F 60.8 °F 88% 29.89 in 5.0 mi South 5.8 mph - N/A   Partly Cloudy
2:55 AM 66.2 °F 60.8 °F 83% 29.89 in 5.0 mi South 4.6 mph - N/A   Clear
3:15 AM 66.2 °F 60.8 °F 83% 29.90 in 8.0 mi SSE 3.5 mph - N/A   Partly Cloudy
3:35 AM 66.2 °F 60.8 °F 83% 29.90 in 9.0 mi South 5.8 mph - N/A   Mostly Cloudy
3:55 AM 66.2 °F 60.8 °F 83% 29.90 in 5.0 mi SSW 9.2 mph - N/A   Overcast
4:15 AM 66.2 °F 60.8 °F 83% 29.90 in 3.0 mi SSW 5.8 mph - N/A   Overcast
4:35 AM 66.2 °F 60.8 °F 83% 29.90 in 3.0 mi SW 6.9 mph - N/A   Overcast
4:55 AM 66.2 °F 60.8 °F 83% 29.91 in 1.0 mi SSW 6.9 mph - N/A   Overcast
5:15 AM 66.2 °F 60.8 °F 83% 29.91 in 1.0 mi South 6.9 mph - N/A   Overcast
5:35 AM 66.2 °F 60.8 °F 83% 29.91 in 0.8 mi SSW 5.8 mph - N/A   Overcast
5:55 AM 66.2 °F 60.8 °F 83% 29.92 in 0.8 mi SSW 5.8 mph - N/A   Overcast
6:15 AM 64.4 °F 60.8 °F 88% 29.91 in 0.5 mi South 3.5 mph - N/A   Overcast
6:35 AM 64.4 °F 60.8 °F 88% 29.92 in 0.5 mi South 4.6 mph - N/A   Overcast
6:50 AM 64.4 °F 60.8 °F 88% 29.92 in 0.2 mi South 5.8 mph - N/A Fog Fog
7:50 AM 64.4 °F 59.0 °F 83% 29.96 in 0.2 mi South 4.6 mph - N/A Fog Fog
8:50 AM 66.2 °F 60.8 °F 83% 29.97 in 1.0 mi South 4.6 mph - N/A   Overcast
9:50 AM 68.0 °F 60.8 °F 78% 29.99 in 5.0 mi South 4.6 mph - N/A   Overcast
10:50 AM 71.6 °F 62.6 °F 73% 30.00 in 10.0 mi SSW 6.9 mph - N/A   Overcast
11:22 AM 71.6 °F 62.6 °F 73% 30.01 in 10.0 mi SW 8.1 mph - N/A   Overcast
11:50 AM 73.4 °F 62.6 °F 69% 30.00 in 10.0 mi WSW 5.8 mph - N/A   Overcast
12:50 PM 73.4 °F 62.6 °F 69% 29.98 in 10.0 mi WNW 5.8 mph - N/A   Mostly Cloudy
1:50 PM 75.2 °F 62.6 °F 65% 29.96 in 10.0 mi Calm Calm - N/A   Mostly Cloudy
2:50 PM 75.2 °F 62.6 °F 65% 29.96 in 10.0 mi West 3.5 mph - N/A   Mostly Cloudy
3:50 PM 77.0 °F 62.6 °F 61% 29.94 in 10.0 mi Calm Calm - N/A   Mostly Cloudy
4:50 PM 77.0 °F 62.6 °F 61% 29.96 in 10.0 mi Calm Calm - N/A   Mostly Cloudy
5:50 PM 73.4 °F 62.6 °F 69% 29.97 in 10.0 mi Calm Calm - N/A   Mostly Cloudy
6:50 PM 73.4 °F 62.6 °F 69% 29.98 in 10.0 mi Calm Calm - N/A   Mostly Cloudy
7:55 PM 71.6 °F 62.6 °F 73% 29.97 in 10.0 mi Calm Calm - N/A   Clear
8:15 PM 69.8 °F 60.8 °F 73% 29.99 in 10.0 mi Calm Calm - N/A   Clear
8:35 PM 69.8 °F 62.6 °F 78% 30.01 in 10.0 mi Calm Calm - N/A   Clear
8:55 PM 69.8 °F 62.6 °F 78% 30.02 in 10.0 mi Calm Calm - N/A   Scattered Clouds
9:15 PM 69.8 °F 62.6 °F 78% 30.03 in 10.0 mi Calm Calm - N/A   Overcast
9:35 PM 69.8 °F 62.6 °F 78% 30.03 in 10.0 mi Calm Calm - N/A   Overcast
9:55 PM 69.8 °F 62.6 °F 78% 30.04 in 10.0 mi Calm Calm - N/A   Overcast
10:15 PM 69.8 °F 62.6 °F 78% 30.04 in 10.0 mi Calm Calm - N/A   Overcast
10:35 PM 71.6 °F 62.6 °F 73% 30.04 in 10.0 mi Calm Calm - N/A   Mostly Cloudy
10:55 PM 71.6 °F 62.6 °F 73% 30.04 in 7.0 mi Calm Calm - N/A   Scattered Clouds
11:15 PM 69.8 °F 62.6 °F 78% 30.03 in 8.0 mi East 4.6 mph - N/A   Mostly Cloudy
11:35 PM 69.8 °F 62.6 °F 78% 30.03 in 9.0 mi Calm Calm - 0.01 in   Mostly Cloudy
11:55 PM 69.8 °F 62.6 °F 78% 30.03 in 10.0 mi Calm Calm - 0.01 in   Overcast